1998-067UW

Last updated on Mon Jan 09 2023 00:03:43 GMT+0000 (Coordinated Universal Time)

1 55129U 98067UW 23008.08171744 .00030045 00000+0 51846-3 0 9995 2 55129 51.6422 41.5637 0002454 254.3965 105.6753 15.50752245 1564
UTC large
Height (km)
Speed (km/s)
/
Latitude / Longitude
Inclination (degrees)
Orbital Period (minutes)
Azimuth
Elevation
Range (km)
Doppler Factor

Next 0 passes for location: London (51.5072 / 0.1276)

Sorry there are no passes over London.